Regional Weather Roundup
Issued by NWS

Home | Current Version | Previous Version | Graphics & Text | Print | Product List | Glossary On
Versions: 1 2 3 4 5 6 7 8 9 10 11 12 13 14 15 16 17 18 19 20 21 22 23 24 25 26 27 28 29 30 31 32 33 34 35 36 37 38 39 40 41 42 43 44 45 46 47 48 49 50
000
ASUS45 KTFX 220910
RWRMT
MONTANA REGIONAL WEATHER ROUNDUP
NATIONAL WEATHER SERVICE GREAT FALLS MT
200 AM MST SUN JAN 22 2017

NOTE: "FAIR" INDICATES FEW OR NO CLOUDS BELOW 12000 FEET WITH NO
SIGNIFICANT WEATHER AND/OR OBSTRUCTIONS TO VISIBILITY.

MTZ001>007-043-221000-
WEST OF THE DIVIDE

CITY           SKY/WX    TMP DP  RH WIND       PRES   REMARKS
KALISPELL      CLOUDY    24  22  91 CALM      29.78R
MISSOULA       PTCLDY    21  21 100 W3        29.82R FOG
BUTTE          CLOUDY    10   6  84 CALM      29.76R
MULLAN PASS    CLOUDY    25  22  88 VRB5      29.66S
ANACONDA         N/A     23  16  74 S6        29.77R WCI  16
DEER LODGE       N/A     14  10  85 CALM      29.80R
EUREKA           N/A     25  23  93 CALM      29.80S
HAMILTON         N/A     23  21  93 CALM        N/A
PLAINS           N/A     19  14  81 CALM      29.82R
RONAN            N/A     25  23  91 CALM      29.83R VSB 0
$$

MTZ008-052>055-221000-
SOUTHWEST MONTANA

CITY           SKY/WX    TMP DP  RH WIND       PRES   REMARKS
BOZEMAN        CLOUDY    17  14  88 S5        29.79R
DILLON         PTCLDY   N/A N/A N/A S13       29.78R
W YELLOWSTONE  FLURRIES  23  19  86 SW7       29.81R WCI  15
ENNIS          CLOUDY    27  19  74 S9        29.83R WCI  17
$$

MTZ009-010-012-014-046-048-049-054-221000-
EAST SLOPES AND CENTRAL MONTANA

CITY           SKY/WX    TMP DP  RH WIND       PRES   REMARKS
CUT BANK       CLEAR     17  14  88 N6        29.75R WCI   9
GREAT FALLS    CLOUDY    25  20  81 W5        29.75R
MALMSTROM AFB  CLOUDY    26  23  89 SW5       29.76R
HELENA         CLOUDY    13   9  84 CALM      29.80R
AUGUSTA          N/A     16  13  88 N6        29.72S WCI   7
BOWMANS CRNR   MOCLDY    23  18  80 SW12      29.72R WCI  12
CHOTEAU          N/A     25  21  86 W3        29.77R
CONRAD           N/A     19  16  88 CALM      29.79R
POWER          MOCLDY    22  17  84 W8        29.74R WCI  12
RAYNESFORD     MOCLDY    25  21  85 CALM      29.75R
ULM            MOCLDY    26  23  87 MISG      29.76R
$$

MTZ011-013-016-021-045-047-050-051-221000-
NORTH CENTRAL MONTANA

CITY           SKY/WX    TMP DP  RH WIND       PRES   REMARKS
HAVRE          CLOUDY    22  20  92 SW9       29.77R WCI  12
LEWISTOWN      CLOUDY    25  17  72 SW7       29.73R WCI  17
CHINOOK          N/A     28  27  93 W10G17    29.77R WCI  19
DENTON         MOCLDY    21  17  84 W10       29.71R WCI  10
FORT BENTON      N/A     27  21  80 MISG      29.79R
GEYSER         MOCLDY    28  22  77 W9        29.72R WCI  19
GRASS RANGE      N/A     24  19  81 NW3       29.70R
JUDITH GAP     MOCLDY    26  15  65 N6        29.72R WCI  19
ROY              N/A     26  21  79 MISG      29.70R
STANFORD         N/A     25  20  79 NW8       29.72R WCI  16
WINIFRED         N/A     25  20  82 W8        29.72R WCI  16
$$

MTZ017>020-022>027-061-062-221000-
NORTHEAST MONTANA

CITY           SKY/WX    TMP DP  RH WIND       PRES   REMARKS
GLASGOW        CLOUDY    25  23  92 NW13      29.71R FOG     WCI  14
JORDAN           N/A     21  17  84 NW8       29.71R WCI  11
SIDNEY         CLOUDY    25  23  92 SW9       29.69R WCI  15
WOLF POINT     CLOUDY    22  19  89 W7        29.72R FOG     WCI  13
PLENTYWOOD       N/A     28  28 100 W10       29.66R WCI  19
POPLAR           N/A     19  18  93 W8        29.71R WCI   9
SCOBEY           N/A     28  22  78 NW8       29.67R WCI  20
$$

MTZ028>42-056>058-221000-
SOUTHCENTRAL AND SOUTHEAST MONTANA

CITY           SKY/WX    TMP DP  RH WIND       PRES   REMARKS
BAKER          CLOUDY    13  10  88 NW5       29.69R
BILLINGS       MOCLDY    28  19  69 SW14      29.75R WCI  17
LIVINGSTON     CLOUDY    31  19  61 W13       29.75R WCI  21
MILES CITY     FOG       13  10  88 SW6       29.74R VSB 3/4 WCI   4
BIG TIMBER     CLEAR     30  19  64 SW14      29.76R WCI  20
EKALAKA          N/A     24  19  81 SW7       29.69R WCI  16
FORSYTH          N/A     19  19 100 SW3       29.74R
HARLOWTON      MOCLDY    24  18  78 NW13      29.74R WCI  13
LAUREL           N/A     24  12  60 S8        29.76R WCI  15
ROUNDUP          N/A     24  15  68 S9        29.68R WCI  14
$$

REGIONAL REPORTS...DAKOTAS

CITY           SKY/WX    TMP DP  RH WIND       PRES   REMARKS
WILLISTON      CLOUDY    30  27  88 W12       29.67R WCI  20
MINOT          CLOUDY    32  29  88 W10       29.61R WCI  24
DICKINSON      CLOUDY    15  13  91 NW6       29.65R WCI   6
BEACH            N/A     19  18  93 W13       29.70R WCI   7
CROSBY         CLOUDY    28  28 100 NW10      29.66R FOG     WCI  19
TIOGA          CLOUDY    28  28 100 W14       29.65R FOG     WCI  17
WATFORD CITY   CLOUDY    27  27 100 W6        29.67R FOG     WCI  20
BISMARCK       CLOUDY    25  23  92 W3        29.68R FOG
GRAND FORKS    CLOUDY    34  32  92 W3        29.63R FOG
FARGO          FOG       35  33  92 W3        29.63R VSB 1/2
BUFFALO SD       N/A     20  17  88 W9        29.62R WCI   9
RAPID CITY     CLOUDY    26  21  81 NW7       29.70R WCI  18
$$

REGIONAL REPORTS...WYOMING/IDAHO/WASHINGTON

CITY           SKY/WX    TMP DP  RH WIND       PRES   REMARKS
GILLETTE       CLOUDY    26  22  84 NE3       29.72R
SHERIDAN       CLOUDY    26  17  68 SW7       29.73R WCI  18
BUFFALO WY     CLOUDY    32  17  54 NW7       29.73R WCI  26
CODY           CLOUDY    30  17  58 NW9       29.76R WCI  22
YELLOWSTONE LA   N/A     17  13  84 VRB6      29.81R WCI   9
IDAHO FALLS    CLOUDY    20  19  96 S6        29.91R WCI  12
SALMON         CLOUDY    10   9  92 CALM      29.87R
BOISE          PTCLDY    35  29  78 E12       29.82S WCI  27
SPOKANE        FLURRIES  35  32  88 SE10      29.70S WCI  27
$$

REGIONAL REPORTS...ALBERTA

CITY           SKY/WX    TMP DP  RH WIND       PRES   REMARKS
EDMONTON       CLOUDY    19  14  79 NE6       29.88R WCI  11
CALGARY        CLOUDY    25  21  86 N7        29.77R FOG     WCI  17
LETHBRIDGE     CLOUDY    23 N/A N/A W5        29.79R
MEDICINE HAT   CLOUDY    28  27  93 NW5       29.78R
WATERTON GATE    N/A     27  25  93 SW3         N/A
CARDSTON         N/A     23  19  86 SW1         N/A
MILK RIVER       N/A     27  25  93 N10         N/A  WCI  17
ONEFOUR          N/A     28  27  93 NW10        N/A  WCI  19
$$

REGIONAL REPORTS...SASKATCHEWAN

CITY           SKY/WX    TMP DP  RH WIND       PRES   REMARKS
SWIFT CURRENT  CLOUDY    27  27 100 NW17G23   29.66R FOG     WCI  14
REGINA         CLOUDY    25  23  93 NW9       29.63R WCI  15
SASKATOON      FLURRIES  27  23  86 NW9       29.69R WCI  17
CYPRESS HILLS    N/A     21  19  93 NW9         N/A  WCI  11
VAL MARIE        N/A     27  25  93 W7          N/A  WCI  19
ROCKGLEN         N/A     27  25  93 W8          N/A  WCI  18
$$



USA.gov is the U.S. government's official web portal to all federal, state and local government web resources and services.